Weather History for Anchorage, AK

Change the Weather History Date:

Sunday, August 25, 2013

  Actual Average Record
Temperature  
Mean Temperature 53 °F 55 °F  
Max Temperature 64 °F 62 °F 76 °F (1987)
Min Temperature 41 °F 48 °F 34 °F (1948)
Degree Days  
Heating Degree Days 12    
Month to date heating degree days 174  
Since 1 June heating degree days 469  
Since 1 July heating degree days 285  
Cooling Degree Days 0    
Month to date cooling degree days 0  
Year to date cooling degree days 21  
Since 1 June cooling degree days 21  
Growing Degree Days 4 (Base 50)    
Moisture  
Dew Point 40 °F    
Average Humidity 59    
Maximum Humidity 76    
Minimum Humidity 42    
Precipitation  
Precipitation 0.00 in 0.12 in 2.70 in (1989)
Month to date precipitation 4.60 2.57  
Year to date precipitation 12.54 8.61  
Snow  
Snow 0.00 in 0.00 in 0.00 in ()
Month to date snowfall 0.0 0.0  
Since 1 June snowfall 0.0 0.0  
Since 1 July snowfall 0.0 0.0  
Snow Depth 0.00 in    
Sea Level Pressure  
Sea Level Pressure 29.71 in    
Wind  
Wind Speed 5 mph (North)    
Max Wind Speed 15 mph    
Max Gust Speed -    
Visibility 10 miles    
Events Fog    
T = Trace of Precipitation, MM = Missing Value Source: NWS Daily Summary

Daily Weather History Graph

Daily Weather History Graph

Search for Another Location

Airport:

Trip Planner

Search our weather history database for the weather conditions in past years. The results will help you decide how hot, cold, wet, or windy it might be!

Date:

Astronomy

Aug. 25, 2013 Rise Set
Actual Time 6:35 AM AKDT 9:26 PM AKDT
Civil Twilight 5:46 AM AKDT 10:15 PM AKDT
Nautical Twilight 4:37 AM AKDT 11:22 PM AKDT
Astronomical Twilight 2:30 AM AKDT 1:17 AM AKDT
Moon 10:16 PM AKDT (8/25) 1:32 PM AKDT (8/25)
Length of Visible Light 16h 29m
Length of Day
14h 51m
Waning Gibbous, 74% of the Moon is Illuminated
Aug 25
Waning Gibbous
Aug 28
Last Quarter
Sep 5
New
Sep 12
First Quarter
Sep 19
Full

Hourly Weather History & Observations

Time (AKDT) Temp. Dew Point Humidity Pressure Visibility Wind Dir Wind Speed Gust Speed Precip Events Conditions
12:53 AM 54.0 °F 36.0 °F 51% 29.71 in 10.0 mi North 10.4 mph - N/A   Scattered Clouds
1:53 AM 53.1 °F 36.0 °F 52% 29.70 in 10.0 mi North 11.5 mph - N/A   Scattered Clouds
2:53 AM 52.0 °F 37.0 °F 57% 29.71 in 10.0 mi North 15.0 mph - N/A   Scattered Clouds
3:53 AM 50.0 °F 36.0 °F 59% 29.72 in 10.0 mi North 5.8 mph - N/A   Scattered Clouds
4:53 AM 50.0 °F 35.1 °F 57% 29.73 in 10.0 mi NE 3.5 mph - N/A   Scattered Clouds
5:53 AM 46.0 °F 36.0 °F 68% 29.74 in 10.0 mi Calm Calm - N/A   Partly Cloudy
6:53 AM 44.1 °F 37.9 °F 79% 29.74 in 10.0 mi Calm Calm - N/A   Partly Cloudy
7:53 AM 46.0 °F 39.0 °F 76% 29.74 in 10.0 mi Calm Calm - N/A   Partly Cloudy
8:53 AM 52.0 °F 39.0 °F 61% 29.74 in 10.0 mi Calm Calm - N/A   Partly Cloudy
9:53 AM 55.0 °F 37.0 °F 51% 29.73 in 10.0 mi NNE 4.6 mph - N/A   Partly Cloudy
10:53 AM 55.9 °F 37.0 °F 49% 29.73 in 10.0 mi NE 5.8 mph - N/A   Partly Cloudy
11:53 AM 59.0 °F 37.9 °F 46% 29.73 in 10.0 mi NNE 4.6 mph - N/A   Partly Cloudy
12:53 PM 60.1 °F 37.9 °F 44% 29.72 in 10.0 mi Calm Calm - N/A   Partly Cloudy
1:53 PM 62.1 °F 42.1 °F 48% 29.71 in 10.0 mi WNW 5.8 mph - N/A   Scattered Clouds
2:53 PM 64.0 °F 42.1 °F 45% 29.71 in 10.0 mi Variable 5.8 mph - N/A   Scattered Clouds
3:53 PM 66.0 °F 43.0 °F 43% 29.70 in 10.0 mi NW 3.5 mph - N/A   Scattered Clouds
4:53 PM 66.0 °F 44.1 °F 45% 29.69 in 10.0 mi WNW 4.6 mph - N/A   Scattered Clouds
5:53 PM 64.9 °F 48.0 °F 54% 29.69 in 10.0 mi NW 3.5 mph - N/A   Scattered Clouds
6:53 PM 63.0 °F 46.0 °F 54% 29.68 in 10.0 mi Calm Calm - N/A   Scattered Clouds
7:53 PM 63.0 °F 45.0 °F 52% 29.68 in 10.0 mi Calm Calm - N/A   Scattered Clouds
8:53 PM 55.0 °F 48.0 °F 77% 29.69 in 10.0 mi Calm Calm - N/A   Scattered Clouds
9:53 PM 51.1 °F 45.0 °F 80% 29.70 in 10.0 mi Calm Calm - N/A   Scattered Clouds
10:53 PM 48.9 °F 43.0 °F 80% 29.71 in 10.0 mi Calm Calm - N/A Fog Scattered Clouds
11:53 PM 52.0 °F 44.1 °F 74% 29.72 in 10.0 mi Calm Calm - N/A Fog Mostly Cloudy